owner,sensor,date,latitude,longitude,vertical_datum,direction_of_sea_water_velocity,sea_water_speed,upward_sea_water_velocity,qcFlag 
TABS,ioos:station:wmo:42045:1,2012-03-01T00:00:00Z,26.2168,-96.4998,2.0,80.8672271,15.43567621,-99999.0,'11111222,11111222,99999999' 
TABS,ioos:station:wmo:42045:1,2012-03-01T00:30:00Z,26.2168,-96.4998,2.0,100.9864573,10.0746464,-99999.0,'11111222,11111222,99999999' 
TABS,ioos:station:wmo:42045:1,2012-03-01T01:00:00Z,26.2168,-96.4998,2.0,110.3348671,11.82709601,-99999.0,'11111222,11111222,99999999' 
TABS,ioos:station:wmo:42045:1,2012-03-01T01:30:00Z,26.2168,-96.4998,2.0,104.2391091,8.903538622,-99999.0,'11133222,11111222,99999999' 
TABS,ioos:station:wmo:42045:1,2012-03-01T02:00:00Z,26.2168,-96.4998,2.0,176.1573454,5.372075949,-99999.0,'11133222,11111222,99999999' 
TABS,ioos:station:wmo:42045:1,2012-03-01T02:30:00Z,26.2168,-96.4998,2.0,157.5330922,2.878471817,-99999.0,'11133222,11111222,99999999' 
TABS,ioos:station:wmo:42045:1,2012-03-01T03:00:00Z,26.2168,-96.4998,2.0,125.5933731,11.94096311,-99999.0,'11111222,11111222,99999999' 
TABS,ioos:station:wmo:42045:1,2012-03-01T03:30:00Z,26.2168,-96.4998,2.0,134.2460482,9.674058094,-99999.0,'11133222,11111222,99999999' 
TABS,ioos:station:wmo:42045:1,2012-03-01T04:00:00Z,26.2168,-96.4998,2.0,180.0589792,9.680005165,-99999.0,'11133222,11111222,99999999' 
TABS,ioos:station:wmo:42045:1,2012-03-01T04:30:00Z,26.2168,-96.4998,2.0,160.6100448,7.590520404,-99999.0,'11133222,11111222,99999999' 
TABS,ioos:station:wmo:42045:1,2012-03-01T05:00:00Z,26.2168,-96.4998,2.0,205.0700664,5.829176614,-99999.0,'11133222,11111222,99999999' 
TABS,ioos:station:wmo:42045:1,2012-03-01T05:30:00Z,26.2168,-96.4998,2.0,196.9510589,10.01512856,-99999.0,'11111222,11111222,99999999' 
TABS,ioos:station:wmo:42045:1,2012-03-01T06:00:00Z,26.2168,-96.4998,2.0,223.8497437,15.50290295,-99999.0,'11111222,11111222,99999999' 
TABS,ioos:station:wmo:42045:1,2012-03-01T06:30:00Z,26.2168,-96.4998,2.0,262.4512203,19.64019603,-99999.0,'11111222,11111222,99999999' 
TABS,ioos:station:wmo:42045:1,2012-03-01T07:00:00Z,26.2168,-96.4998,2.0,278.21582,13.29645065,-99999.0,'11111222,11111222,99999999' 
TABS,ioos:station:wmo:42045:1,2012-03-01T07:30:00Z,26.2168,-96.4998,2.0,264.8804449,18.60420651,-99999.0,'11111222,11111222,99999999' 
TABS,ioos:station:wmo:42045:1,2012-03-01T08:00:00Z,26.2168,-96.4998,2.0,280.6422726,19.00690664,-99999.0,'11111222,11111222,99999999' 
TABS,ioos:station:wmo:42045:1,2012-03-01T08:30:00Z,26.2168,-96.4998,2.0,284.1733881,25.40325373,-99999.0,'11111222,11111222,99999999' 
TABS,ioos:station:wmo:42045:1,2012-03-01T09:00:00Z,26.2168,-96.4998,2.0,292.8138921,20.7101183,-99999.0,'11111222,11111222,99999999' 
TABS,ioos:station:wmo:42045:1,2012-03-01T09:30:00Z,26.2168,-96.4998,2.0,298.8700278,25.57894642,-99999.0,'11111222,11111222,99999999' 
TABS,ioos:station:wmo:42045:1,2012-03-01T10:00:00Z,26.2168,-96.4998,2.0,310.3865683,25.1413325,-99999.0,'11111222,11111222,99999999' 
TABS,ioos:station:wmo:42045:1,2012-03-01T10:30:00Z,26.2168,-96.4998,2.0,315.1273568,22.32341596,-99999.0,'11111222,11111222,99999999' 
TABS,ioos:station:wmo:42045:1,2012-03-01T11:00:00Z,26.2168,-96.4998,2.0,318.1676638,23.41979718,-99999.0,'11111222,11111222,99999999' 
TABS,ioos:station:wmo:42045:1,2012-03-01T11:30:00Z,26.2168,-96.4998,2.0,311.4059616,19.62546305,-99999.0,'11111222,11111222,99999999' 
TABS,ioos:station:wmo:42045:1,2012-03-01T12:00:00Z,26.2168,-96.4998,2.0,321.4571367,19.1781777,-99999.0,'11111222,11111222,99999999' 
TABS,ioos:station:wmo:42045:1,2012-03-01T12:30:00Z,26.2168,-96.4998,2.0,326.1567516,15.53166121,-99999.0,'11111222,11111222,99999999' 
TABS,ioos:station:wmo:42045:1,2012-03-01T13:00:00Z,26.2168,-96.4998,2.0,333.8064623,20.70642412,-99999.0,'11111222,11111222,99999999' 
TABS,ioos:station:wmo:42045:1,2012-03-01T13:30:00Z,26.2168,-96.4998,2.0,337.1960258,19.84087196,-99999.0,'11111222,11111222,99999999' 
TABS,ioos:station:wmo:42045:1,2012-03-01T14:00:00Z,26.2168,-96.4998,2.0,343.4397659,21.75229873,-99999.0,'11111222,11111222,99999999' 
TABS,ioos:station:wmo:42045:1,2012-03-01T14:30:00Z,26.2168,-96.4998,2.0,337.0581369,20.2410894,-99999.0,'11111222,11111222,99999999' 
TABS,ioos:station:wmo:42045:1,2012-03-01T15:00:00Z,26.2168,-96.4998,2.0,340.6178762,18.74221972,-99999.0,'11111222,11111222,99999999' 
TABS,ioos:station:wmo:42045:1,2012-03-01T15:30:00Z,26.2168,-96.4998,2.0,333.3911365,17.43686325,-99999.0,'11111222,11111222,99999999' 
TABS,ioos:station:wmo:42045:1,2012-03-01T16:00:00Z,26.2168,-96.4998,2.0,343.2013082,18.165203,-99999.0,'11111222,11111222,99999999' 
TABS,ioos:station:wmo:42045:1,2012-03-01T16:30:00Z,26.2168,-96.4998,2.0,347.8928601,12.68209762,-99999.0,'11111222,11111222,99999999' 
TABS,ioos:station:wmo:42045:1,2012-03-01T17:00:00Z,26.2168,-96.4998,2.0,355.9488693,14.29572314,-99999.0,'11111222,11111222,99999999' 
TABS,ioos:station:wmo:42045:1,2012-03-01T17:30:00Z,26.2168,-96.4998,2.0,30.98764571,12.41135367,-99999.0,'11111222,11111222,99999999' 
TABS,ioos:station:wmo:42045:1,2012-03-01T18:00:00Z,26.2168,-96.4998,2.0,16.04984397,11.32127643,-99999.0,'11111222,11111222,99999999' 
TABS,ioos:station:wmo:42045:1,2012-03-01T18:30:00Z,26.2168,-96.4998,2.0,66.87556087,8.122622729,-99999.0,'11133222,11111222,99999999' 
TABS,ioos:station:wmo:42045:1,2012-03-01T19:00:00Z,26.2168,-96.4998,2.0,122.8789077,6.465678619,-99999.0,'11133222,11111222,99999999' 
TABS,ioos:station:wmo:42045:1,2012-03-01T19:30:00Z,26.2168,-96.4998,2.0,29.25056754,12.50440722,-99999.0,'11111222,11111222,99999999' 
TABS,ioos:station:wmo:42045:1,2012-03-01T20:00:00Z,26.2168,-96.4998,2.0,50.08327982,12.52971269,-99999.0,'11111222,11111222,99999999' 
TABS,ioos:station:wmo:42045:1,2012-03-01T20:30:00Z,26.2168,-96.4998,2.0,65.37738188,24.40952683,-99999.0,'11111222,11111222,99999999' 
TABS,ioos:station:wmo:42045:1,2012-03-01T21:00:00Z,26.2168,-96.4998,2.0,94.15727877,17.65645774,-99999.0,'11111222,11111222,99999999' 
TABS,ioos:station:wmo:42045:1,2012-03-01T21:30:00Z,26.2168,-96.4998,2.0,107.4382614,15.81694345,-99999.0,'11111222,11111222,99999999' 
TABS,ioos:station:wmo:42045:1,2012-03-01T22:00:00Z,26.2168,-96.4998,2.0,111.6032099,13.96065901,-99999.0,'11111222,11111222,99999999' 
TABS,ioos:station:wmo:42045:1,2012-03-01T22:30:00Z,26.2168,-96.4998,2.0,119.2746947,15.4192769,-99999.0,'11111222,11111222,99999999' 
TABS,ioos:station:wmo:42045:1,2012-03-01T23:00:00Z,26.2168,-96.4998,2.0,147.6162477,8.028598881,-99999.0,'11133222,11111222,99999999' 
TABS,ioos:station:wmo:42045:1,2012-03-01T23:30:00Z,26.2168,-96.4998,2.0,154.539931,7.188059543,-99999.0,'11133222,11111222,99999999' 
TABS,ioos:station:wmo:42045:1,2012-03-02T00:00:00Z,26.2168,-96.4998,2.0,184.5104376,9.027962118,-99999.0,'11133222,11111222,99999999' 
TABS,ioos:station:wmo:42045:1,2012-03-02T00:30:00Z,26.2168,-96.4998,2.0,193.2619591,10.59249734,-99999.0,'11111222,11111222,99999999' 
TABS,ioos:station:wmo:42045:1,2012-03-02T01:00:00Z,26.2168,-96.4998,2.0,224.717442,8.612665093,-99999.0,'11133222,11111222,99999999' 
TABS,ioos:station:wmo:42045:1,2012-03-02T01:30:00Z,26.2168,-96.4998,2.0,212.5309852,10.9714402,-99999.0,'11111222,11111222,99999999' 
TABS,ioos:station:wmo:42045:1,2012-03-02T02:00:00Z,26.2168,-96.4998,2.0,230.3751444,15.39779205,-99999.0,'11111222,11111222,99999999' 
TABS,ioos:station:wmo:42045:1,2012-03-02T02:30:00Z,26.2168,-96.4998,2.0,233.6642038,18.86882084,-99999.0,'11111222,11111222,99999999' 
TABS,ioos:station:wmo:42045:1,2012-03-02T03:00:00Z,26.2168,-96.4998,2.0,259.3307714,17.17692638,-99999.0,'11111222,11111222,99999999' 
TABS,ioos:station:wmo:42045:1,2012-03-02T03:30:00Z,26.2168,-96.4998,2.0,250.2609554,18.62431207,-99999.0,'11111222,11111222,99999999' 
TABS,ioos:station:wmo:42045:1,2012-03-02T04:00:00Z,26.2168,-96.4998,2.0,263.1323651,22.33019928,-99999.0,'11111222,11111222,99999999' 
TABS,ioos:station:wmo:42045:1,2012-03-02T04:30:00Z,26.2168,-96.4998,2.0,260.8732163,21.30976302,-99999.0,'11111222,11111222,99999999' 
TABS,ioos:station:wmo:42045:1,2012-03-02T05:00:00Z,26.2168,-96.4998,2.0,273.0370111,25.29551739,-99999.0,'11111222,11111222,99999999' 
TABS,ioos:station:wmo:42045:1,2012-03-02T09:00:00Z,26.2168,-96.4998,2.0,356.3984228,30.88099739,-99999.0,'11111222,11111222,99999999' 
TABS,ioos:station:wmo:42045:1,2012-03-02T09:30:00Z,26.2168,-96.4998,2.0,358.5072707,32.24094447,-99999.0,'11111222,11111222,99999999' 
TABS,ioos:station:wmo:42045:1,2012-03-02T10:00:00Z,26.2168,-96.4998,2.0,8.500633595,34.56975846,-99999.0,'11111222,11111222,99999999' 
TABS,ioos:station:wmo:42045:1,2012-03-02T10:30:00Z,26.2168,-96.4998,2.0,17.51746315,34.75156399,-99999.0,'11111222,11111222,99999999' 
TABS,ioos:station:wmo:42045:1,2012-03-02T11:00:00Z,26.2168,-96.4998,2.0,28.45839554,34.24842332,-99999.0,'11111222,11111222,99999999' 
TABS,ioos:station:wmo:42045:1,2012-03-02T11:30:00Z,26.2168,-96.4998,2.0,33.14896664,37.28861086,-99999.0,'11111222,11111222,99999999' 
TABS,ioos:station:wmo:42045:1,2012-03-02T12:00:00Z,26.2168,-96.4998,2.0,33.55717777,34.64389412,-99999.0,'11111222,11111222,99999999' 
TABS,ioos:station:wmo:42045:1,2012-03-02T12:30:00Z,26.2168,-96.4998,2.0,34.94453312,40.41682076,-99999.0,'11111222,11111222,99999999' 
TABS,ioos:station:wmo:42045:1,2012-03-02T13:00:00Z,26.2168,-96.4998,2.0,41.07463777,36.77096681,-99999.0,'11111222,11111222,99999999' 
TABS,ioos:station:wmo:42045:1,2012-03-02T15:00:00Z,26.2168,-96.4998,2.0,21.0514818,38.72451033,-99999.0,'11111222,11111222,99999999' 
TABS,ioos:station:wmo:42045:1,2012-03-02T15:30:00Z,26.2168,-96.4998,2.0,19.57483048,38.95115531,-99999.0,'11111222,11111222,99999999' 
TABS,ioos:station:wmo:42045:1,2012-03-02T16:00:00Z,26.2168,-96.4998,2.0,26.71353325,39.73058897,-99999.0,'11111222,11111222,99999999' 
TABS,ioos:station:wmo:42045:1,2012-03-02T16:30:00Z,26.2168,-96.4998,2.0,27.96491063,41.92536822,-99999.0,'11111222,11111222,99999999' 
TABS,ioos:station:wmo:42045:1,2012-03-02T17:00:00Z,26.2168,-96.4998,2.0,23.83512325,38.77718143,-99999.0,'11111222,11111222,99999999' 
TABS,ioos:station:wmo:42045:1,2012-03-02T17:30:00Z,26.2168,-96.4998,2.0,30.4681135,35.87370207,-99999.0,'11111222,11111222,99999999' 
TABS,ioos:station:wmo:42045:1,2012-03-02T18:00:00Z,26.2168,-96.4998,2.0,33.58935897,34.66881596,-99999.0,'11111222,11111222,99999999' 
TABS,ioos:station:wmo:42045:1,2012-03-02T18:30:00Z,26.2168,-96.4998,2.0,46.34952513,37.23242673,-99999.0,'11111222,11111222,99999999' 
TABS,ioos:station:wmo:42045:1,2012-03-02T19:00:00Z,26.2168,-96.4998,2.0,53.88182318,34.76099107,-99999.0,'11111222,11111222,99999999' 
TABS,ioos:station:wmo:42045:1,2012-03-02T19:30:00Z,26.2168,-96.4998,2.0,61.35053512,31.59866136,-99999.0,'11111222,11111222,99999999' 
TABS,ioos:station:wmo:42045:1,2012-03-02T20:00:00Z,26.2168,-96.4998,2.0,68.70653496,28.28065416,-99999.0,'11111222,11111222,99999999' 
TABS,ioos:station:wmo:42045:1,2012-03-02T20:30:00Z,26.2168,-96.4998,2.0,59.53673442,26.31231651,-99999.0,'11111222,11111222,99999999' 
TABS,ioos:station:wmo:42045:1,2012-03-02T21:00:00Z,26.2168,-96.4998,2.0,67.4663623,25.57233662,-99999.0,'11111222,11111222,99999999' 
TABS,ioos:station:wmo:42045:1,2012-03-02T21:30:00Z,26.2168,-96.4998,2.0,70.14843303,24.94218314,-99999.0,'11111222,11111222,99999999' 
TABS,ioos:station:wmo:42045:1,2012-03-02T22:00:00Z,26.2168,-96.4998,2.0,74.62641133,26.29074742,-99999.0,'11111222,11111222,99999999' 
TABS,ioos:station:wmo:42045:1,2012-03-02T22:30:00Z,26.2168,-96.4998,2.0,74.09059723,17.51072814,-99999.0,'11111222,11111222,99999999' 
TABS,ioos:station:wmo:42045:1,2012-03-02T23:00:00Z,26.2168,-96.4998,2.0,89.81165207,15.21008218,-99999.0,'11111222,11111222,99999999' 
TABS,ioos:station:wmo:42045:1,2012-03-02T23:30:00Z,26.2168,-96.4998,2.0,113.9157017,18.67323753,-99999.0,'11111222,11111222,99999999' 
TABS,ioos:station:wmo:42045:1,2012-03-03T00:00:00Z,26.2168,-96.4998,2.0,117.5595504,16.23182676,-99999.0,'11111222,11111222,99999999' 
TABS,ioos:station:wmo:42045:1,2012-03-03T00:30:00Z,26.2168,-96.4998,2.0,123.8120358,14.32239156,-99999.0,'11111222,11111222,99999999' 
TABS,ioos:station:wmo:42045:1,2012-03-03T01:00:00Z,26.2168,-96.4998,2.0,149.0837327,6.189386076,-99999.0,'11133222,11111222,99999999' 
TABS,ioos:station:wmo:42045:1,2012-03-03T01:30:00Z,26.2168,-96.4998,2.0,163.662605,8.034407259,-99999.0,'11133222,11111222,99999999' 
TABS,ioos:station:wmo:42045:1,2012-03-03T02:00:00Z,26.2168,-96.4998,2.0,199.4305851,6.913783335,-99999.0,'11133222,11111222,99999999' 
TABS,ioos:station:wmo:42045:1,2012-03-03T02:30:00Z,26.2168,-96.4998,2.0,224.7738157,5.381124418,-99999.0,'11133222,11111222,99999999' 
TABS,ioos:station:wmo:42045:1,2012-03-03T03:00:00Z,26.2168,-96.4998,2.0,220.227976,4.165153058,-99999.0,'11133222,11111222,99999999' 
TABS,ioos:station:wmo:42045:1,2012-03-03T03:30:00Z,26.2168,-96.4998,2.0,265.2167519,7.435892683,-99999.0,'11133222,11111222,99999999' 
TABS,ioos:station:wmo:42045:1,2012-03-03T04:00:00Z,26.2168,-96.4998,2.0,263.8014933,11.5776768,-99999.0,'11111222,11111222,99999999' 
TABS,ioos:station:wmo:42045:1,2012-03-03T04:30:00Z,26.2168,-96.4998,2.0,268.9262499,12.81224805,-99999.0,'11111222,11111222,99999999' 
TABS,ioos:station:wmo:42045:1,2012-03-03T05:00:00Z,26.2168,-96.4998,2.0,272.4393842,15.74426245,-99999.0,'11111222,11111222,99999999' 
TABS,ioos:station:wmo:42045:1,2012-03-03T05:30:00Z,26.2168,-96.4998,2.0,268.4811634,15.09530059,-99999.0,'11111222,11111222,99999999' 
TABS,ioos:station:wmo:42045:1,2012-03-03T06:00:00Z,26.2168,-96.4998,2.0,279.6942641,16.27234464,-99999.0,'11111222,11111222,99999999' 
TABS,ioos:station:wmo:42045:1,2012-03-03T06:30:00Z,26.2168,-96.4998,2.0,291.6399849,21.04307962,-99999.0,'11111222,11111222,99999999' 
TABS,ioos:station:wmo:42045:1,2012-03-03T07:00:00Z,26.2168,-96.4998,2.0,285.1969075,21.43969449,-99999.0,'11111222,11111222,99999999' 
TABS,ioos:station:wmo:42045:1,2012-03-03T07:30:00Z,26.2168,-96.4998,2.0,286.0626225,22.22773268,-99999.0,'11111222,11111222,99999999' 
TABS,ioos:station:wmo:42045:1,2012-03-03T15:00:00Z,26.2168,-96.4998,2.0,192.3786887,7.463517937,-99999.0,'11133222,11111222,99999999' 
TABS,ioos:station:wmo:42045:1,2012-03-03T15:30:00Z,26.2168,-96.4998,2.0,207.2206454,12.11133766,-99999.0,'11111222,11111222,99999999' 
TABS,ioos:station:wmo:42045:1,2012-03-03T16:00:00Z,26.2168,-96.4998,2.0,199.6635247,15.48290993,-99999.0,'11111222,11111222,99999999' 
TABS,ioos:station:wmo:42045:1,2012-03-03T16:30:00Z,26.2168,-96.4998,2.0,205.6878729,23.66931558,-99999.0,'11111222,11111222,99999999' 
TABS,ioos:station:wmo:42045:1,2012-03-03T17:00:00Z,26.2168,-96.4998,2.0,200.2489333,32.56248455,-99999.0,'11111222,11111222,99999999' 
TABS,ioos:station:wmo:42045:1,2012-03-03T17:30:00Z,26.2168,-96.4998,2.0,198.2997764,40.28752909,-99999.0,'11111222,11111222,99999999' 
TABS,ioos:station:wmo:42045:1,2012-03-03T18:00:00Z,26.2168,-96.4998,2.0,206.0077672,29.44146226,-99999.0,'11111222,11111222,99999999' 
TABS,ioos:station:wmo:42045:1,2012-03-03T18:30:00Z,26.2168,-96.4998,2.0,207.6101799,39.46422431,-99999.0,'11111222,11111222,99999999' 
TABS,ioos:station:wmo:42045:1,2012-03-03T19:00:00Z,26.2168,-96.4998,2.0,207.3715103,36.84510822,-99999.0,'11111222,11111222,99999999' 
TABS,ioos:station:wmo:42045:1,2012-03-03T19:30:00Z,26.2168,-96.4998,2.0,198.4294642,34.63642736,-99999.0,'11111222,11111222,99999999' 
TABS,ioos:station:wmo:42045:1,2012-03-03T20:00:00Z,26.2168,-96.4998,2.0,198.6560478,31.10439519,-99999.0,'11111222,11111222,99999999' 
TABS,ioos:station:wmo:42045:1,2012-03-03T20:30:00Z,26.2168,-96.4998,2.0,206.4383913,30.41059848,-99999.0,'11111222,11111222,99999999' 
TABS,ioos:station:wmo:42045:1,2012-03-03T21:00:00Z,26.2168,-96.4998,2.0,215.3959526,33.90721457,-99999.0,'11111222,11111222,99999999' 
TABS,ioos:station:wmo:42045:1,2012-03-03T21:30:00Z,26.2168,-96.4998,2.0,209.6271147,37.50322119,-99999.0,'11111222,11111222,99999999' 
TABS,ioos:station:wmo:42045:1,2012-03-03T22:00:00Z,26.2168,-96.4998,2.0,207.4908297,32.92816576,-99999.0,'11111222,11111222,99999999' 
TABS,ioos:station:wmo:42045:1,2012-03-03T22:30:00Z,26.2168,-96.4998,2.0,209.9104259,34.71374656,-99999.0,'11111222,11111222,99999999' 
TABS,ioos:station:wmo:42045:1,2012-03-03T23:00:00Z,26.2168,-96.4998,2.0,214.1335323,37.95927291,-99999.0,'11111222,11111222,99999999' 
TABS,ioos:station:wmo:42045:1,2012-03-03T23:30:00Z,26.2168,-96.4998,2.0,212.5172241,36.05196805,-99999.0,'11111222,11111222,99999999' 
TABS,ioos:station:wmo:42045:1,2012-03-04T00:00:00Z,26.2168,-96.4998,2.0,218.8310358,35.99508994,-99999.0,'11111222,11111222,99999999' 
TABS,ioos:station:wmo:42045:1,2012-03-04T00:30:00Z,26.2168,-96.4998,2.0,218.0584198,35.28159435,-99999.0,'11111222,11111222,99999999' 
TABS,ioos:station:wmo:42045:1,2012-03-04T01:00:00Z,26.2168,-96.4998,2.0,217.2504037,32.19871115,-99999.0,'11111222,11111222,99999999' 
TABS,ioos:station:wmo:42045:1,2012-03-04T01:30:00Z,26.2168,-96.4998,2.0,225.6579172,30.1600945,-99999.0,'11111222,11111222,99999999' 
TABS,ioos:station:wmo:42045:1,2012-03-04T02:00:00Z,26.2168,-96.4998,2.0,213.5831025,29.79299918,-99999.0,'11111222,11111222,99999999' 
TABS,ioos:station:wmo:42045:1,2012-03-04T02:30:00Z,26.2168,-96.4998,2.0,226.1358527,32.09481578,-99999.0,'11111222,11111222,99999999' 
TABS,ioos:station:wmo:42045:1,2012-03-04T03:00:00Z,26.2168,-96.4998,2.0,221.3271699,26.27347331,-99999.0,'11111222,11111222,99999999' 
TABS,ioos:station:wmo:42045:1,2012-03-04T03:30:00Z,26.2168,-96.4998,2.0,223.1294706,27.73335897,-99999.0,'11111222,11111222,99999999' 
TABS,ioos:station:wmo:42045:1,2012-03-04T04:00:00Z,26.2168,-96.4998,2.0,221.8693203,24.99108841,-99999.0,'11111222,11111222,99999999' 
TABS,ioos:station:wmo:42045:1,2012-03-04T04:30:00Z,26.2168,-96.4998,2.0,225.2778163,29.13314264,-99999.0,'11111222,11111222,99999999' 
TABS,ioos:station:wmo:42045:1,2012-03-04T05:00:00Z,26.2168,-96.4998,2.0,222.6468771,22.90835874,-99999.0,'11111222,11111222,99999999' 
TABS,ioos:station:wmo:42045:1,2012-03-04T05:30:00Z,26.2168,-96.4998,2.0,214.1685409,22.23870725,-99999.0,'11111222,11111222,99999999' 
TABS,ioos:station:wmo:42045:1,2012-03-04T06:00:00Z,26.2168,-96.4998,2.0,226.3673778,28.14379683,-99999.0,'11111222,11111222,99999999' 
TABS,ioos:station:wmo:42045:1,2012-03-04T06:30:00Z,26.2168,-96.4998,2.0,227.5922953,22.19758996,-99999.0,'11111222,11111222,99999999' 
TABS,ioos:station:wmo:42045:1,2012-03-04T07:00:00Z,26.2168,-96.4998,2.0,233.0083788,18.88004237,-99999.0,'11111222,11111222,99999999' 
TABS,ioos:station:wmo:42045:1,2012-03-04T07:30:00Z,26.2168,-96.4998,2.0,232.429168,18.31936953,-99999.0,'11111222,11111222,99999999' 
TABS,ioos:station:wmo:42045:1,2012-03-04T08:00:00Z,26.2168,-96.4998,2.0,239.1236875,17.90790328,-99999.0,'11111222,11111222,99999999' 
TABS,ioos:station:wmo:42045:1,2012-03-04T08:30:00Z,26.2168,-96.4998,2.0,223.1823796,12.93241663,-99999.0,'11111222,11111222,99999999' 
TABS,ioos:station:wmo:42045:1,2012-03-04T09:00:00Z,26.2168,-96.4998,2.0,239.5035438,19.96138522,-99999.0,'11111222,11111222,99999999' 
TABS,ioos:station:wmo:42045:1,2012-03-04T09:30:00Z,26.2168,-96.4998,2.0,261.4141847,11.92361103,-99999.0,'11111222,11111222,99999999' 
TABS,ioos:station:wmo:42045:1,2012-03-04T10:00:00Z,26.2168,-96.4998,2.0,272.3740112,13.52160124,-99999.0,'11111222,11111222,99999999' 
TABS,ioos:station:wmo:42045:1,2012-03-04T10:30:00Z,26.2168,-96.4998,2.0,270.4461348,14.14042786,-99999.0,'11111222,11111222,99999999' 
TABS,ioos:station:wmo:42045:1,2012-03-04T11:00:00Z,26.2168,-96.4998,2.0,269.6076861,14.62034199,-99999.0,'11111222,11111222,99999999' 
TABS,ioos:station:wmo:42045:1,2012-03-04T11:30:00Z,26.2168,-96.4998,2.0,278.9452386,9.647326054,-99999.0,'11133222,11111222,99999999' 
TABS,ioos:station:wmo:42045:1,2012-03-04T12:00:00Z,26.2168,-96.4998,2.0,290.2390848,12.25673692,-99999.0,'11111222,11111222,99999999' 
TABS,ioos:station:wmo:42045:1,2012-03-04T12:30:00Z,26.2168,-96.4998,2.0,283.2676933,11.02423694,-99999.0,'11111222,11111222,99999999' 
TABS,ioos:station:wmo:42045:1,2012-03-04T13:00:00Z,26.2168,-96.4998,2.0,330.3673041,9.525885786,-99999.0,'11133222,11111222,99999999' 
TABS,ioos:station:wmo:42045:1,2012-03-04T13:30:00Z,26.2168,-96.4998,2.0,296.5877649,11.46208533,-99999.0,'11111222,11111222,99999999' 
TABS,ioos:station:wmo:42045:1,2012-03-04T14:00:00Z,26.2168,-96.4998,2.0,319.0718982,12.34896757,-99999.0,'11111222,11111222,99999999' 
TABS,ioos:station:wmo:42045:1,2012-03-04T14:30:00Z,26.2168,-96.4998,2.0,340.1289533,7.443178085,-99999.0,'11133222,11111222,99999999' 
TABS,ioos:station:wmo:42045:1,2012-03-04T15:00:00Z,26.2168,-96.4998,2.0,336.7810048,7.279629111,-99999.0,'11133222,11111222,99999999' 
TABS,ioos:station:wmo:42045:1,2012-03-04T16:30:00Z,26.2168,-96.4998,2.0,342.8431295,10.06803357,-99999.0,'11111222,11111222,99999999' 
TABS,ioos:station:wmo:42045:1,2012-03-04T17:00:00Z,26.2168,-96.4998,2.0,355.0816574,9.213929672,-99999.0,'11133222,11111222,99999999' 
TABS,ioos:station:wmo:42045:1,2012-03-04T17:30:00Z,26.2168,-96.4998,2.0,9.600753768,14.9899433,-99999.0,'11111222,11111222,99999999' 
TABS,ioos:station:wmo:42045:1,2012-03-04T18:00:00Z,26.2168,-96.4998,2.0,18.58274276,22.09174506,-99999.0,'11111222,11111222,99999999' 
TABS,ioos:station:wmo:42045:1,2012-03-04T18:30:00Z,26.2168,-96.4998,2.0,37.94764475,24.24628838,-99999.0,'11111222,11111222,99999999' 
TABS,ioos:station:wmo:42045:1,2012-03-04T19:00:00Z,26.2168,-96.4998,2.0,47.95579786,18.65000268,-99999.0,'11111222,11111222,99999999' 
TABS,ioos:station:wmo:42045:1,2012-03-04T19:30:00Z,26.2168,-96.4998,2.0,50.49390636,20.8280436,-99999.0,'11111222,11111222,99999999' 
TABS,ioos:station:wmo:42045:1,2012-03-04T20:00:00Z,26.2168,-96.4998,2.0,55.25455536,19.42334935,-99999.0,'11111222,11111222,99999999' 
TABS,ioos:station:wmo:42045:1,2012-03-04T20:30:00Z,26.2168,-96.4998,2.0,49.50614429,21.42083565,-99999.0,'11111222,11111222,99999999' 
TABS,ioos:station:wmo:42045:1,2012-03-04T21:00:00Z,26.2168,-96.4998,2.0,65.67625837,20.12659186,-99999.0,'11111222,11111222,99999999' 
TABS,ioos:station:wmo:42045:1,2012-03-04T21:30:00Z,26.2168,-96.4998,2.0,61.09545734,27.82646402,-99999.0,'11111222,11111222,99999999' 
TABS,ioos:station:wmo:42045:1,2012-03-04T22:00:00Z,26.2168,-96.4998,2.0,57.59605318,22.24353389,-99999.0,'11111222,11111222,99999999' 
TABS,ioos:station:wmo:42045:1,2012-03-04T22:30:00Z,26.2168,-96.4998,2.0,73.67318467,15.47401047,-99999.0,'11111222,11111222,99999999' 
TABS,ioos:station:wmo:42045:1,2012-03-04T23:00:00Z,26.2168,-96.4998,2.0,90.0,14.61,-99999.0,'11111222,11111222,99999999' 
TABS,ioos:station:wmo:42045:1,2012-03-04T23:30:00Z,26.2168,-96.4998,2.0,91.70774462,12.41551449,-99999.0,'11111222,11111222,99999999' 
TABS,ioos:station:wmo:42045:1,2012-03-05T00:00:00Z,26.2168,-96.4998,2.0,120.6934547,14.90853782,-99999.0,'11111222,11111222,99999999' 
TABS,ioos:station:wmo:42045:1,2012-03-05T00:30:00Z,26.2168,-96.4998,2.0,99.51599795,12.27896575,-99999.0,'11111222,11111222,99999999' 
TABS,ioos:station:wmo:42045:1,2012-03-05T01:00:00Z,26.2168,-96.4998,2.0,102.9988046,10.18088896,-99999.0,'11111222,11111222,99999999' 
TABS,ioos:station:wmo:42045:1,2012-03-05T01:30:00Z,26.2168,-96.4998,2.0,104.1580873,10.26170551,-99999.0,'11111222,11111222,99999999' 
TABS,ioos:station:wmo:42045:1,2012-03-05T02:00:00Z,26.2168,-96.4998,2.0,100.1055995,9.517657275,-99999.0,'11133222,11111222,99999999' 
TABS,ioos:station:wmo:42045:1,2012-03-05T02:30:00Z,26.2168,-96.4998,2.0,93.69137735,10.25126821,-99999.0,'11111222,11111222,99999999' 
TABS,ioos:station:wmo:42045:1,2012-03-05T03:00:00Z,26.2168,-96.4998,2.0,79.59719923,4.707377189,-99999.0,'11133222,11111222,99999999' 
TABS,ioos:station:wmo:42045:1,2012-03-05T03:30:00Z,26.2168,-96.4998,2.0,93.53829625,4.698957331,-99999.0,'11133222,11111222,99999999' 
TABS,ioos:station:wmo:42045:1,2012-03-05T04:00:00Z,26.2168,-96.4998,2.0,27.82424178,2.035313244,-99999.0,'11133222,11111222,99999999' 
TABS,ioos:station:wmo:42045:1,2012-03-05T04:30:00Z,26.2168,-96.4998,2.0,42.33234519,3.949936708,-99999.0,'11133222,11111222,99999999' 
TABS,ioos:station:wmo:42045:1,2012-03-05T05:00:00Z,26.2168,-96.4998,2.0,73.23428028,4.12536059,-99999.0,'11133222,11111222,99999999' 